TimeEDT,TemperatureF,Dew PointF,Humidity,Sea Level PressureIn,VisibilityMPH,Wind Direction,Wind SpeedMPH,Gust SpeedMPH,PrecipitationIn,Events,Conditions,WindDirDegrees,DateUTC
12:15 AM,50.0,37.4,62,30.04,10.0,East,9.2,-,N/A,,Mostly Cloudy,100,2014-04-24 04:15:00
12:35 AM,51.8,33.8,50,30.04,10.0,East,9.2,-,N/A,,Overcast,100,2014-04-24 04:35:00
12:55 AM,51.8,33.8,50,30.05,10.0,ESE,5.8,-,N/A,,Overcast,110,2014-04-24 04:55:00
1:15 AM,51.8,33.8,50,30.05,10.0,East,4.6,-,N/A,,Overcast,100,2014-04-24 05:15:00
1:35 AM,51.8,33.8,50,30.06,10.0,ESE,4.6,-,N/A,,Overcast,110,2014-04-24 05:35:00
1:55 AM,51.8,33.8,50,30.04,10.0,East,8.1,-,N/A,,Overcast,100,2014-04-24 05:55:00
2:15 AM,51.8,33.8,50,30.05,10.0,ESE,4.6,-,N/A,,Overcast,110,2014-04-24 06:15:00
2:35 AM,51.8,33.8,50,30.05,10.0,ESE,3.5,-,N/A,,Overcast,110,2014-04-24 06:35:00
2:55 AM,51.8,33.8,50,30.04,10.0,ESE,4.6,-,N/A,,Mostly Cloudy,110,2014-04-24 06:55:00
3:15 AM,50.0,33.8,54,30.04,10.0,East,3.5,-,N/A,,Scattered Clouds,100,2014-04-24 07:15:00
3:35 AM,51.8,33.8,50,30.03,10.0,ESE,3.5,-,N/A,,Scattered Clouds,120,2014-04-24 07:35:00
3:55 AM,50.0,35.6,58,30.04,10.0,East,3.5,-,N/A,,Clear,100,2014-04-24 07:55:00
4:15 AM,50.0,35.6,58,30.04,10.0,East,4.6,-,N/A,,Clear,100,2014-04-24 08:15:00
4:35 AM,50.0,35.6,58,30.03,10.0,ESE,5.8,-,N/A,,Clear,110,2014-04-24 08:35:00
4:55 AM,50.0,35.6,58,30.04,10.0,ESE,5.8,-,N/A,,Clear,120,2014-04-24 08:55:00
5:15 AM,50.0,33.8,54,30.03,10.0,ESE,6.9,-,N/A,,Clear,120,2014-04-24 09:15:00
5:35 AM,50.0,33.8,54,30.04,10.0,ESE,8.1,-,N/A,,Clear,120,2014-04-24 09:35:00
5:55 AM,48.2,35.6,62,30.05,10.0,ESE,5.8,-,N/A,,Scattered Clouds,110,2014-04-24 09:55:00
6:15 AM,46.4,35.6,66,30.05,10.0,ESE,5.8,-,N/A,,Scattered Clouds,110,2014-04-24 10:15:00
6:35 AM,46.4,35.6,66,30.06,10.0,ESE,5.8,-,N/A,,Scattered Clouds,110,2014-04-24 10:35:00
6:55 AM,46.4,35.6,66,30.07,10.0,East,6.9,-,N/A,,Clear,90,2014-04-24 10:55:00
7:15 AM,46.4,35.6,66,30.07,10.0,East,8.1,-,N/A,,Clear,90,2014-04-24 11:15:00
7:35 AM,46.4,35.6,66,30.08,10.0,East,8.1,-,N/A,,Clear,100,2014-04-24 11:35:00
7:55 AM,48.2,35.6,62,30.07,10.0,East,6.9,-,N/A,,Scattered Clouds,100,2014-04-24 11:55:00
8:15 AM,50.0,35.6,58,30.08,10.0,ESE,9.2,-,N/A,,Mostly Cloudy,110,2014-04-24 12:15:00
8:35 AM,50.0,35.6,58,30.08,10.0,East,9.2,-,N/A,,Mostly Cloudy,100,2014-04-24 12:35:00
8:55 AM,51.8,35.6,54,30.08,10.0,ESE,10.4,-,N/A,,Scattered Clouds,110,2014-04-24 12:55:00
9:15 AM,51.8,35.6,54,30.08,10.0,ESE,13.8,-,N/A,,Scattered Clouds,110,2014-04-24 13:15:00
9:35 AM,51.8,35.6,54,30.07,10.0,ESE,11.5,-,N/A,,Scattered Clouds,110,2014-04-24 13:35:00
9:55 AM,51.8,35.6,54,30.07,10.0,ESE,13.8,-,N/A,,Scattered Clouds,110,2014-04-24 13:55:00
10:15 AM,53.6,35.6,51,30.07,10.0,ESE,16.1,-,N/A,,Scattered Clouds,110,2014-04-24 14:15:00
10:35 AM,55.4,35.6,47,30.06,10.0,ESE,17.3,20.7,N/A,,Clear,110,2014-04-24 14:35:00
10:55 AM,55.4,33.8,44,30.06,10.0,SE,13.8,21.9,N/A,,Clear,130,2014-04-24 14:55:00
11:15 AM,55.4,35.6,47,30.05,10.0,SSE,15.0,20.7,N/A,,Clear,150,2014-04-24 15:15:00
11:35 AM,57.2,35.6,44,30.04,10.0,SE,15.0,20.7,N/A,,Clear,130,2014-04-24 15:35:00
11:55 AM,59.0,35.6,42,30.03,10.0,SE,12.7,19.6,N/A,,Clear,130,2014-04-24 15:55:00
12:15 PM,59.0,35.6,42,30.01,10.0,East,15.0,23.0,N/A,,Clear,100,2014-04-24 16:15:00
12:35 PM,60.8,35.6,39,30.01,10.0,SE,11.5,23.0,N/A,,Clear,130,2014-04-24 16:35:00
12:55 PM,60.8,37.4,42,29.99,10.0,SE,12.7,20.7,N/A,,Clear,140,2014-04-24 16:55:00
1:15 PM,60.8,35.6,39,29.98,10.0,ESE,15.0,23.0,N/A,,Clear,120,2014-04-24 17:15:00
1:35 PM,60.8,35.6,39,29.96,10.0,SE,10.4,20.7,N/A,,Scattered Clouds,130,2014-04-24 17:35:00
1:55 PM,60.8,35.6,39,29.95,10.0,SE,15.0,20.7,N/A,,Clear,140,2014-04-24 17:55:00
2:15 PM,62.6,37.4,39,29.94,10.0,SE,12.7,19.6,N/A,,Scattered Clouds,140,2014-04-24 18:15:00
2:35 PM,62.6,35.6,37,29.93,10.0,SSE,8.1,21.9,N/A,,Scattered Clouds,150,2014-04-24 18:35:00
2:55 PM,64.4,35.6,34,29.93,10.0,ESE,8.1,19.6,N/A,,Clear,120,2014-04-24 18:55:00
3:15 PM,64.4,37.4,37,29.93,10.0,SE,11.5,18.4,N/A,,Clear,140,2014-04-24 19:15:00
3:35 PM,64.4,37.4,37,29.92,10.0,SE,8.1,17.3,N/A,,Clear,140,2014-04-24 19:35:00
3:55 PM,64.4,37.4,37,29.91,10.0,South,12.7,18.4,N/A,,Clear,170,2014-04-24 19:55:00
4:15 PM,66.2,35.6,32,29.89,10.0,SSE,13.8,18.4,N/A,,Clear,160,2014-04-24 20:15:00
4:35 PM,66.2,35.6,32,29.88,10.0,SSE,11.5,19.6,N/A,,Clear,150,2014-04-24 20:35:00
4:55 PM,66.2,35.6,32,29.86,10.0,SE,16.1,23.0,N/A,,Clear,140,2014-04-24 20:55:00
5:15 PM,64.4,35.6,34,29.85,10.0,SSE,16.1,19.6,N/A,,Clear,150,2014-04-24 21:15:00
5:35 PM,66.2,35.6,32,29.84,10.0,SE,12.7,-,N/A,,Clear,140,2014-04-24 21:35:00
5:55 PM,66.2,37.4,35,29.84,10.0,SSE,10.4,19.6,N/A,,Clear,150,2014-04-24 21:55:00
6:15 PM,66.2,39.2,37,29.83,10.0,SSE,5.8,-,N/A,,Clear,150,2014-04-24 22:15:00
6:35 PM,64.4,37.4,37,29.82,10.0,SSE,10.4,-,N/A,,Clear,150,2014-04-24 22:35:00
6:55 PM,66.2,37.4,35,29.81,10.0,SE,10.4,16.1,N/A,,Clear,140,2014-04-24 22:55:00
7:15 PM,64.4,37.4,37,29.80,10.0,ESE,8.1,-,N/A,,Clear,120,2014-04-24 23:15:00
7:35 PM,64.4,37.4,37,29.78,10.0,ESE,8.1,-,N/A,,Clear,120,2014-04-24 23:35:00
7:55 PM,64.4,37.4,37,29.78,10.0,SE,8.1,-,N/A,,Clear,130,2014-04-24 23:55:00
8:15 PM,64.4,39.2,40,29.78,10.0,East,6.9,-,N/A,,Clear,100,2014-04-25 00:15:00
8:35 PM,62.6,41.0,45,29.77,10.0,East,8.1,-,N/A,,Clear,100,2014-04-25 00:35:00
8:55 PM,62.6,39.2,42,29.77,10.0,East,8.1,-,N/A,,Clear,100,2014-04-25 00:55:00
9:15 PM,60.8,41.0,48,29.78,10.0,ESE,5.8,-,N/A,,Clear,110,2014-04-25 01:15:00
9:35 PM,60.8,41.0,48,29.77,10.0,ESE,8.1,-,N/A,,Clear,110,2014-04-25 01:35:00
9:55 PM,60.8,41.0,48,29.77,10.0,ESE,6.9,-,N/A,,Clear,120,2014-04-25 01:55:00
10:15 PM,60.8,41.0,48,29.76,10.0,ESE,8.1,-,N/A,,Clear,110,2014-04-25 02:15:00
10:35 PM,59.0,39.2,48,29.75,10.0,ESE,8.1,-,N/A,,Scattered Clouds,110,2014-04-25 02:35:00
10:55 PM,59.0,39.2,48,29.75,10.0,ESE,5.8,-,N/A,,Scattered Clouds,120,2014-04-25 02:55:00
11:15 PM,59.0,39.2,48,29.74,10.0,ESE,5.8,-,N/A,,Mostly Cloudy,110,2014-04-25 03:15:00
11:35 PM,59.0,41.0,51,29.73,10.0,ESE,6.9,-,N/A,,Overcast,120,2014-04-25 03:35:00
11:55 PM,59.0,39.2,48,29.72,10.0,SE,5.8,-,N/A,,Mostly Cloudy,130,2014-04-25 03:55:00